| time (UTC) | temp F | wind direction | speed MPH | gust MPH | rain 1hr in | rain 24hr in | rain mn in | humidity % | barometer mb |
| 20260901035534 | 73 | 119 | 0.0 | 0.0 | 0.00 | 0.00 | 0.00 | 98 | 1021.6 |
| 20260901035033 | 73 | 119 | 0.0 | 0.0 | 0.00 | 0.00 | 0.00 | 98 | 1021.6 |
| 20260901034528 | 73 | 119 | 0.0 | 0.0 | 0.00 | 0.00 | 0.00 | 98 | 1021.5 |
| 20260901034023 | 74 | 119 | 0.0 | 0.0 | 0.00 | 0.00 | 0.00 | 98 | 1021.5 |
| 20260901033522 | 73 | 119 | 0.0 | 0.0 | 0.00 | 0.00 | 0.00 | 98 | 1021.6 |
| 20260901033021 | 74 | 119 | 0.0 | 0.0 | 0.00 | 0.00 | 0.00 | 98 | 1021.5 |
| 20260901032515 | 74 | 119 | 0.0 | 0.0 | 0.00 | 0.00 | 0.00 | 97 | 1021.6 |
| 20260901032016 | 74 | 119 | 0.0 | 0.0 | 0.00 | 0.00 | 0.00 | 97 | 1021.6 |
| 20260901031511 | 74 | 119 | 0.0 | 0.0 | 0.00 | 0.00 | 0.00 | 97 | 1021.5 |
| 20260901031006 | 74 | 119 | 0.0 | 0.0 | 0.00 | 0.00 | 0.00 | 96 | 1021.5 |
| 20260901030501 | 74 | 122 | 0.0 | 0.0 | 0.00 | 0.00 | 0.00 | 96 | 1021.5 |
| 20260901030001 | 74 | 122 | 0.0 | 0.0 | 0.00 | 0.00 | 0.00 | 96 | 1021.5 |
| 20260901025455 | 74 | 122 | 0.0 | 0.0 | 0.00 | 0.00 | 0.00 | 96 | 1021.4 |
| 20260901024955 | 75 | 122 | 0.0 | 0.0 | 0.00 | 0.00 | 0.00 | 96 | 1021.4 |
| 20260901024450 | 75 | 122 | 0.0 | 0.0 | 0.00 | 0.00 | 0.00 | 95 | 1021.3 |
| 20260901023948 | 75 | 122 | 0.0 | 0.0 | 0.00 | 0.00 | 0.00 | 95 | 1021.5 |
| 20260901023443 | 75 | 122 | 0.0 | 0.0 | 0.00 | 0.00 | 0.00 | 95 | 1021.3 |
| 20260901022938 | 75 | 122 | 0.0 | 0.0 | 0.00 | 0.00 | 0.00 | 95 | 1021.4 |
| 20260901022434 | 75 | 122 | 0.0 | 0.0 | 0.00 | 0.00 | 0.00 | 94 | 1021.5 |
| 20260901021928 | 75 | 122 | 0.0 | 0.0 | 0.00 | 0.00 | 0.00 | 94 | 1021.4 |
| 20260901021424 | 76 | 122 | 0.0 | 0.0 | 0.00 | 0.00 | 0.00 | 94 | 1021.4 |
| 20260901020919 | 76 | 122 | 0.0 | 0.0 | 0.00 | 0.00 | 0.00 | 93 | 1021.2 |
| 20260901020414 | 76 | 122 | 0.0 | 0.0 | 0.00 | 0.00 | 0.00 | 93 | 1021.2 |
| 20260901015913 | 76 | 122 | 0.0 | 0.0 | 0.00 | 0.00 | 0.00 | 93 | 1021.0 |
| 20260901015410 | 76 | 126 | 0.0 | 0.0 | 0.00 | 0.00 | 0.00 | 92 | 1021.1 |
| 20260901014909 | 77 | 126 | 0.0 | 0.0 | 0.00 | 0.00 | 0.00 | 92 | 1020.9 |
| 20260901014406 | 77 | 126 | 0.0 | 0.0 | 0.00 | 0.00 | 0.00 | 92 | 1020.9 |
| 20260901013901 | 77 | 126 | 0.0 | 0.0 | 0.00 | 0.00 | 0.00 | 91 | 1020.8 |
| 20260901013356 | 77 | 126 | 0.0 | 0.0 | 0.00 | 0.00 | 0.00 | 90 | 1020.9 |
| 20260901012852 | 77 | 126 | 0.0 | 0.0 | 0.00 | 0.00 | 0.00 | 90 | 1020.8 |
| 20260901012347 | 78 | 126 | 0.0 | 0.0 | 0.00 | 0.00 | 0.00 | 89 | 1020.7 |
| 20260901011842 | 78 | 126 | 0.0 | 0.0 | 0.00 | 0.00 | 0.00 | 89 | 1020.9 |
| 20260901011338 | 78 | 126 | 0.0 | 0.0 | 0.00 | 0.00 | 0.00 | 88 | 1020.6 |
| 20260901010831 | 79 | 126 | 0.0 | 0.0 | 0.00 | 0.00 | 0.00 | 87 | 1020.9 |
| 20260901010326 | 79 | 126 | 0.0 | 0.0 | 0.00 | 0.00 | 0.00 | 86 | 1020.6 |
| 20260901005824 | 80 | 126 | 0.0 | 0.0 | 0.00 | 0.00 | 0.00 | 85 | 1020.6 |
| 20260901005320 | 80 | 127 | 0.0 | 0.0 | 0.00 | 0.00 | 0.00 | 84 | 1020.5 |
| 20260901004820 | 80 | 128 | 0.0 | 0.0 | 0.00 | 0.00 | 0.00 | 83 | 1020.5 |
| 20260901004314 | 81 | 128 | 0.0 | 0.0 | 0.00 | 0.00 | 0.00 | 82 | 1020.8 |
| 20260901003809 | 82 | 128 | 0.0 | 0.0 | 0.00 | 0.00 | 0.00 | 80 | 1020.5 |
| 20260901003304 | 82 | 128 | 0.0 | 0.0 | 0.00 | 0.00 | 0.00 | 79 | 1020.6 |
| 20260901002802 | 83 | 128 | 0.0 | 0.0 | 0.00 | 0.00 | 0.00 | 76 | 1020.7 |
| 20260901002258 | 84 | 128 | 0.0 | 0.0 | 0.00 | 0.00 | 0.00 | 74 | 1020.6 |
| 20260901001752 | 85 | 128 | 0.0 | 0.0 | 0.00 | 0.00 | 0.00 | 71 | 1020.5 |
| 20260901001248 | 86 | 128 | 0.0 | 0.0 | 0.00 | 0.00 | 0.00 | 69 | 1020.5 |
| 20260901000738 | 87 | 128 | 0.0 | 0.0 | 0.00 | 0.00 | 0.00 | 67 | 1020.7 |
| 20260901000233 | 88 | 129 | 0.0 | 0.0 | 0.00 | 0.00 | 0.00 | 65 | 1020.7 |
| 20260831235731 | 89 | 107 | 0.0 | 1.0 | 0.00 | 0.00 | 0.00 | 65 | 1020.5 |
| 20260831235227 | 90 | 139 | 0.0 | 0.0 | 0.00 | 0.00 | 0.00 | 62 | 1020.4 |
| 20260831234727 | 91 | 130 | 0.0 | 0.0 | 0.00 | 0.00 | 0.00 | 60 | 1020.6 |
| 20260831234222 | 92 | 146 | 0.0 | 1.0 | 0.00 | 0.00 | 0.00 | 58 | 1020.6 |
| 20260831233717 | 92 | 131 | 0.0 | 0.0 | 0.00 | 0.00 | 0.00 | 58 | 1020.5 |
| 20260831233213 | 92 | 152 | 1.0 | 1.0 | 0.00 | 0.00 | 0.00 | 57 | 1020.6 |
| 20260831232712 | 93 | 143 | 0.0 | 2.0 | 0.00 | 0.00 | 0.00 | 56 | 1020.7 |
| 20260831232209 | 92 | 152 | 0.0 | 2.0 | 0.00 | 0.00 | 0.00 | 57 | 1020.7 |
| 20260831231705 | 93 | 130 | 3.0 | 5.0 | 0.00 | 0.00 | 0.00 | 56 | 1020.3 |
| 20260831231200 | 93 | 140 | 1.0 | 2.0 | 0.00 | 0.00 | 0.00 | 56 | 1020.5 |
| 20260831230655 | 93 | 226 | 1.0 | 2.0 | 0.00 | 0.00 | 0.00 | 56 | 1020.4 |
| 20260831230150 | 93 | 141 | 2.0 | 7.0 | 0.00 | 0.00 | 0.00 | 57 | 1020.5 |
| 20260831225649 | 93 | 125 | 2.0 | 5.0 | 0.00 | 0.00 | 0.00 | 57 | 1020.4 |
| 20260831225145 | 93 | 195 | 4.0 | 5.0 | 0.00 | 0.00 | 0.00 | 56 | 1020.5 |
| 20260831224640 | 94 | 173 | 2.0 | 3.0 | 0.00 | 0.00 | 0.00 | 54 | 1020.5 |
| 20260831224135 | 94 | 133 | 2.0 | 3.0 | 0.00 | 0.00 | 0.00 | 55 | 1020.6 |
| 20260831223631 | 94 | 135 | 3.0 | 5.0 | 0.00 | 0.00 | 0.00 | 55 | 1020.6 |
| 20260831223127 | 95 | 178 | 2.0 | 6.0 | 0.00 | 0.00 | 0.00 | 54 | 1020.7 |
| 20260831222622 | 95 | 139 | 1.0 | 3.0 | 0.00 | 0.00 | 0.00 | 54 | 1020.6 |
| 20260831222118 | 94 | 104 | 4.0 | 5.0 | 0.00 | 0.00 | 0.00 | 55 | 1020.6 |
| 20260831221613 | 94 | 145 | 2.0 | 7.0 | 0.00 | 0.00 | 0.00 | 54 | 1020.7 |
| 20260831221108 | 95 | 131 | 3.0 | 5.0 | 0.00 | 0.00 | 0.00 | 54 | 1020.7 |
| 20260831220603 | 95 | 313 | 2.0 | 3.0 | 0.00 | 0.00 | 0.00 | 51 | 1020.8 |
| 20260831220058 | 96 | 159 | 1.0 | 6.0 | 0.00 | 0.00 | 0.00 | 53 | 1020.9 |
| 20260831215553 | 96 | 128 | 5.0 | 6.0 | 0.00 | 0.00 | 0.00 | 52 | 1021.2 |
| 20260831215049 | 96 | 151 | 2.0 | 3.0 | 0.00 | 0.00 | 0.00 | 51 | 1021.1 |
| 20260831214546 | 96 | 151 | 2.0 | 5.0 | 0.00 | 0.00 | 0.00 | 52 | 1021.1 |
| 20260831214042 | 97 | 128 | 1.0 | 6.0 | 0.00 | 0.00 | 0.00 | 51 | 1021.0 |
| 20260831213539 | 97 | 122 | 3.0 | 5.0 | 0.00 | 0.00 | 0.00 | 51 | 1021.3 |
| 20260831213034 | 96 | 230 | 1.0 | 7.0 | 0.00 | 0.00 | 0.00 | 51 | 1021.2 |
| 20260831212530 | 95 | 178 | 3.0 | 6.0 | 0.00 | 0.00 | 0.00 | 51 | 1021.2 |
| 20260831212025 | 95 | 280 | 3.0 | 3.0 | 0.00 | 0.00 | 0.00 | 53 | 1021.2 |
| 20260831211520 | 95 | 153 | 4.0 | 5.0 | 0.00 | 0.00 | 0.00 | 54 | 1021.3 |
| 20260831211019 | 95 | 112 | 1.0 | 5.0 | 0.00 | 0.00 | 0.00 | 53 | 1021.2 |
| 20260831210514 | 95 | 132 | 0.0 | 2.0 | 0.00 | 0.00 | 0.00 | 53 | 1021.2 |
| 20260831210010 | 96 | 138 | 1.0 | 2.0 | 0.00 | 0.00 | 0.00 | 51 | 1021.2 |
| 20260831205505 | 96 | 157 | 1.0 | 7.0 | 0.00 | 0.00 | 0.00 | 52 | 1021.4 |
| 20260831205000 | 96 | 139 | 0.0 | 6.0 | 0.00 | 0.00 | 0.00 | 53 | 1021.4 |
| 20260831204455 | 96 | 153 | 2.0 | 5.0 | 0.00 | 0.00 | 0.00 | 52 | 1021.2 |
| 20260831203953 | 95 | 188 | 3.0 | 6.0 | 0.00 | 0.00 | 0.00 | 54 | 1021.3 |
| 20260831203448 | 96 | 195 | 3.0 | 3.0 | 0.00 | 0.00 | 0.00 | 51 | 1021.6 |
| 20260831202945 | 95 | 213 | 1.0 | 5.0 | 0.00 | 0.00 | 0.00 | 53 | 1021.5 |
| 20260831202442 | 97 | 157 | 2.0 | 5.0 | 0.00 | 0.00 | 0.00 | 51 | 1021.6 |
| 20260831201940 | 97 | 216 | 1.0 | 2.0 | 0.00 | 0.00 | 0.00 | 52 | 1021.7 |
| 20260831201439 | 96 | 155 | 3.0 | 3.0 | 0.00 | 0.00 | 0.00 | 51 | 1021.6 |
| 20260831200935 | 96 | 101 | 1.0 | 5.0 | 0.00 | 0.00 | 0.00 | 52 | 1021.8 |
| 20260831200430 | 96 | 167 | 2.0 | 6.0 | 0.00 | 0.00 | 0.00 | 52 | 1021.8 |
| 20260831195925 | 98 | 168 | 1.0 | 5.0 | 0.00 | 0.00 | 0.00 | 50 | 1021.9 |
| 20260831195420 | 98 | 203 | 3.0 | 6.0 | 0.00 | 0.00 | 0.00 | 49 | 1021.9 |
| 20260831194921 | 98 | 220 | 2.0 | 3.0 | 0.00 | 0.00 | 0.00 | 49 | 1022.0 |
| 20260831194416 | 98 | 142 | 1.0 | 5.0 | 0.00 | 0.00 | 0.00 | 49 | 1022.2 |
| 20260831193915 | 97 | 214 | 3.0 | 5.0 | 0.00 | 0.00 | 0.00 | 52 | 1021.9 |
| 20260831193411 | 98 | 136 | 1.0 | 3.0 | 0.00 | 0.00 | 0.00 | 51 | 1022.3 |
| 20260831192906 | 98 | 217 | 1.0 | 3.0 | 0.00 | 0.00 | 0.00 | 52 | 1022.1 |
| 20260831192401 | 95 | 225 | 2.0 | 3.0 | 0.00 | 0.00 | 0.00 | 54 | 1022.4 |
| 20260831191857 | 95 | 142 | 0.0 | 5.0 | 0.00 | 0.00 | 0.00 | 53 | 1022.3 |
| 20260831191352 | 96 | 34 | 3.0 | 7.0 | 0.00 | 0.00 | 0.00 | 51 | 1022.2 |
| 20260831190848 | 95 | 140 | 1.0 | 2.0 | 0.00 | 0.00 | 0.00 | 54 | 1022.5 |
| 20260831190347 | 96 | 158 | 3.0 | 3.0 | 0.00 | 0.00 | 0.00 | 53 | 1022.4 |
| 20260831185842 | 96 | 256 | 5.0 | 7.0 | 0.00 | 0.00 | 0.00 | 52 | 1022.3 |
| 20260831185338 | 96 | 135 | 1.0 | 7.0 | 0.00 | 0.00 | 0.00 | 52 | 1022.4 |
| 20260831184837 | 95 | 174 | 2.0 | 6.0 | 0.00 | 0.00 | 0.00 | 53 | 1022.4 |
| 20260831184332 | 96 | 105 | 2.0 | 7.0 | 0.00 | 0.00 | 0.00 | 52 | 1022.6 |
| 20260831183827 | 97 | 140 | 2.0 | 5.0 | 0.00 | 0.00 | 0.00 | 52 | 1022.5 |
| 20260831183327 | 96 | 184 | 4.0 | 7.0 | 0.00 | 0.00 | 0.00 | 52 | 1022.6 |
| 20260831182826 | 95 | 279 | 3.0 | 6.0 | 0.00 | 0.00 | 0.00 | 53 | 1022.6 |
| 20260831182321 | 95 | 173 | 1.0 | 6.0 | 0.00 | 0.00 | 0.00 | 56 | 1022.8 |
| 20260831181816 | 94 | 265 | 1.0 | 5.0 | 0.00 | 0.00 | 0.00 | 55 | 1022.7 |
| 20260831181311 | 95 | 127 | 2.0 | 5.0 | 0.00 | 0.00 | 0.00 | 55 | 1022.8 |
| 20260831180807 | 93 | 274 | 5.0 | 7.0 | 0.00 | 0.00 | 0.00 | 56 | 1022.9 |
| 20260831180301 | 93 | 178 | 2.0 | 3.0 | 0.00 | 0.00 | 0.00 | 58 | 1022.8 |
| 20260831175800 | 94 | 151 | 2.0 | 6.0 | 0.00 | 0.00 | 0.00 | 58 | 1022.8 |
| 20260831175257 | 93 | 93 | 4.0 | 6.0 | 0.00 | 0.00 | 0.00 | 58 | 1022.9 |
| 20260831174752 | 93 | 16 | 5.0 | 7.0 | 0.00 | 0.00 | 0.00 | 57 | 1023.2 |
| 20260831174248 | 94 | 200 | 1.0 | 7.0 | 0.00 | 0.00 | 0.00 | 57 | 1023.1 |
| 20260831173747 | 93 | 148 | 1.0 | 6.0 | 0.00 | 0.00 | 0.00 | 58 | 1023.1 |
| 20260831173241 | 93 | 135 | 2.0 | 6.0 | 0.00 | 0.00 | 0.00 | 57 | 1023.3 |
| 20260831172737 | 93 | 126 | 1.0 | 3.0 | 0.00 | 0.00 | 0.00 | 58 | 1023.2 |
| 20260831172232 | 94 | 313 | 2.0 | 2.0 | 0.00 | 0.00 | 0.00 | 57 | 1023.4 |
| 20260831171726 | 95 | 124 | 3.0 | 6.0 | 0.00 | 0.00 | 0.00 | 55 | 1023.2 |
| 20260831171224 | 93 | 123 | 1.0 | 6.0 | 0.00 | 0.00 | 0.00 | 59 | 1023.3 |
| 20260831170720 | 93 | 138 | 1.0 | 5.0 | 0.00 | 0.00 | 0.00 | 57 | 1023.6 |
| 20260831170216 | 93 | 184 | 5.0 | 7.0 | 0.00 | 0.00 | 0.00 | 58 | 1023.4 |
| 20260831165712 | 94 | 154 | 2.0 | 5.0 | 0.00 | 0.00 | 0.00 | 57 | 1023.4 |
| 20260831165209 | 92 | 123 | 1.0 | 5.0 | 0.00 | 0.00 | 0.00 | 60 | 1023.7 |
| 20260831164704 | 93 | 136 | 2.0 | 3.0 | 0.00 | 0.00 | 0.00 | 59 | 1023.4 |
| 20260831164200 | 92 | 341 | 3.0 | 9.0 | 0.00 | 0.00 | 0.00 | 60 | 1023.5 |
| 20260831163655 | 94 | 146 | 3.0 | 9.0 | 0.00 | 0.00 | 0.00 | 58 | 1023.6 |
| 20260831163151 | 94 | 132 | 0.0 | 6.0 | 0.00 | 0.00 | 0.00 | 57 | 1023.5 |
| 20260831162649 | 94 | 227 | 1.0 | 3.0 | 0.00 | 0.00 | 0.00 | 58 | 1023.6 |
| 20260831162148 | 93 | 221 | 3.0 | 5.0 | 0.00 | 0.00 | 0.00 | 58 | 1023.6 |
| 20260831161644 | 93 | 257 | 1.0 | 8.0 | 0.00 | 0.00 | 0.00 | 59 | 1023.7 |
| 20260831161140 | 93 | 281 | 4.0 | 6.0 | 0.00 | 0.00 | 0.00 | 58 | 1023.5 |
| 20260831160639 | 94 | 238 | 2.0 | 8.0 | 0.00 | 0.00 | 0.00 | 58 | 1023.6 |
| 20260831160134 | 94 | 186 | 1.0 | 5.0 | 0.00 | 0.00 | 0.00 | 58 | 1023.5 |
| 20260831155634 | 92 | 359 | 0.0 | 6.0 | 0.00 | 0.00 | 0.00 | 60 | 1023.6 |
| 20260831155130 | 91 | 191 | 1.0 | 9.0 | 0.00 | 0.00 | 0.00 | 61 | 1023.7 |
| 20260831154625 | 92 | 270 | 3.0 | 5.0 | 0.00 | 0.00 | 0.00 | 60 | 1023.9 |
| 20260831154120 | 91 | 257 | 3.0 | 6.0 | 0.00 | 0.00 | 0.00 | 61 | 1023.8 |
| 20260831153619 | 91 | 216 | 3.0 | 6.0 | 0.00 | 0.00 | 0.00 | 62 | 1023.8 |
| 20260831153116 | 91 | 173 | 1.0 | 3.0 | 0.00 | 0.00 | 0.00 | 61 | 1023.8 |
| 20260831152611 | 91 | 286 | 3.0 | 5.0 | 0.00 | 0.00 | 0.00 | 60 | 1023.9 |
| 20260831152107 | 91 | 257 | 3.0 | 3.0 | 0.00 | 0.00 | 0.00 | 62 | 1023.6 |
| 20260831151606 | 91 | 119 | 1.0 | 6.0 | 0.00 | 0.00 | 0.00 | 61 | 1023.5 |
| 20260831151101 | 91 | 164 | 2.0 | 8.0 | 0.00 | 0.00 | 0.00 | 62 | 1024.0 |
| 20260831150556 | 91 | 145 | 1.0 | 6.0 | 0.00 | 0.00 | 0.00 | 62 | 1023.6 |
| 20260831150052 | 90 | 223 | 4.0 | 6.0 | 0.00 | 0.00 | 0.00 | 65 | 1023.7 |
| 20260831145546 | 90 | 153 | 1.0 | 2.0 | 0.00 | 0.00 | 0.00 | 65 | 1023.9 |
| 20260831145042 | 89 | 235 | 1.0 | 5.0 | 0.00 | 0.00 | 0.00 | 67 | 1023.7 |
| 20260831144538 | 89 | 258 | 1.0 | 3.0 | 0.00 | 0.00 | 0.00 | 68 | 1023.8 |
| 20260831144033 | 88 | 142 | 0.0 | 3.0 | 0.00 | 0.00 | 0.00 | 70 | 1023.7 |
| 20260831143527 | 87 | 187 | 1.0 | 3.0 | 0.00 | 0.00 | 0.00 | 71 | 1023.9 |
| 20260831143023 | 86 | 109 | 0.0 | 5.0 | 0.00 | 0.00 | 0.00 | 72 | 1023.7 |
| 20260831142520 | 87 | 141 | 1.0 | 6.0 | 0.00 | 0.00 | 0.00 | 71 | 1023.7 |
| 20260831142015 | 86 | 148 | 2.0 | 2.0 | 0.00 | 0.00 | 0.00 | 71 | 1023.7 |
| 20260831141513 | 86 | 133 | 2.0 | 3.0 | 0.00 | 0.00 | 0.00 | 72 | 1023.8 |
| 20260831141008 | 86 | 135 | 2.0 | 3.0 | 0.00 | 0.00 | 0.00 | 73 | 1023.7 |
| 20260831140503 | 86 | 156 | 0.0 | 3.0 | 0.00 | 0.00 | 0.00 | 75 | 1023.6 |
| 20260831140002 | 85 | 279 | 1.0 | 1.0 | 0.00 | 0.00 | 0.00 | 74 | 1023.7 |
| 20260831135500 | 84 | 214 | 2.0 | 2.0 | 0.00 | 0.00 | 0.00 | 75 | 1023.8 |
| 20260831134955 | 83 | 141 | 1.0 | 3.0 | 0.00 | 0.00 | 0.00 | 77 | 1023.8 |
| 20260831134452 | 83 | 236 | 2.0 | 3.0 | 0.00 | 0.00 | 0.00 | 78 | 1023.5 |
| 20260831133951 | 82 | 138 | 0.0 | 1.0 | 0.00 | 0.00 | 0.00 | 79 | 1023.5 |
| 20260831133446 | 82 | 122 | 2.0 | 2.0 | 0.00 | 0.00 | 0.00 | 79 | 1023.5 |
| 20260831132941 | 82 | 127 | 1.0 | 2.0 | 0.00 | 0.00 | 0.00 | 80 | 1023.5 |
| 20260831132437 | 81 | 169 | 1.0 | 1.0 | 0.00 | 0.00 | 0.00 | 82 | 1023.7 |
| 20260831131936 | 80 | 125 | 0.0 | 1.0 | 0.00 | 0.00 | 0.00 | 86 | 1023.6 |
| 20260831131431 | 78 | 134 | 0.0 | 1.0 | 0.00 | 0.00 | 0.00 | 89 | 1023.5 |
| 20260831130927 | 77 | 139 | 0.0 | 1.0 | 0.00 | 0.00 | 0.00 | 92 | 1023.8 |
| 20260831130422 | 75 | 181 | 0.0 | 1.0 | 0.00 | 0.00 | 0.00 | 96 | 1023.5 |
| 20260831125922 | 74 | 266 | 0.0 | 2.0 | 0.00 | 0.00 | 0.00 | 99 | 1023.5 |
| 20260831125416 | 74 | 129 | 0.0 | 0.0 | 0.00 | 0.00 | 0.00 | 99 | 1023.5 |
| 20260831124912 | 73 | 130 | 0.0 | 1.0 | 0.00 | 0.00 | 0.00 | 99 | 1023.5 |
| 20260831124408 | 73 | 131 | 1.0 | 1.0 | 0.00 | 0.00 | 0.00 | 99 | 1023.5 |
| 20260831123908 | 72 | 118 | 0.0 | 1.0 | 0.00 | 0.00 | 0.00 | 99 | 1023.3 |
| 20260831123407 | 72 | 126 | 0.0 | 0.0 | 0.00 | 0.00 | 0.00 | 99 | 1023.2 |
| 20260831122902 | 72 | 123 | 0.0 | 0.0 | 0.00 | 0.00 | 0.00 | 99 | 1023.3 |
| 20260831122357 | 71 | 121 | 0.0 | 0.0 | 0.00 | 0.00 | 0.00 | 99 | 1023.2 |
| 20260831121852 | 71 | 122 | 0.0 | 0.0 | 0.00 | 0.00 | 0.00 | 99 | 1023.2 |
| 20260831121348 | 70 | 123 | 0.0 | 0.0 | 0.00 | 0.00 | 0.00 | 99 | 1023.1 |
| 20260831120844 | 70 | 118 | 0.0 | 0.0 | 0.00 | 0.00 | 0.00 | 99 | 1023.1 |
| 20260831120338 | 70 | 125 | 0.0 | 0.0 | 0.00 | 0.00 | 0.00 | 99 | 1023.2 |
| 20260831115833 | 69 | 124 | 0.0 | 0.0 | 0.00 | 0.00 | 0.00 | 99 | 1023.2 |
| 20260831115330 | 69 | 125 | 0.0 | 0.0 | 0.00 | 0.00 | 0.00 | 99 | 1023.1 |
| 20260831114829 | 69 | 125 | 0.0 | 0.0 | 0.00 | 0.00 | 0.00 | 99 | 1022.9 |
| 20260831114328 | 69 | 122 | 0.0 | 0.0 | 0.00 | 0.00 | 0.00 | 99 | 1022.9 |
| 20260831113824 | 69 | 123 | 0.0 | 0.0 | 0.00 | 0.00 | 0.00 | 99 | 1022.7 |
| 20260831113323 | 69 | 121 | 0.0 | 0.0 | 0.00 | 0.00 | 0.00 | 99 | 1022.9 |
| 20260831112818 | 68 | 119 | 0.0 | 0.0 | 0.00 | 0.00 | 0.00 | 99 | 1022.7 |
| 20260831112313 | 68 | 119 | 0.0 | 0.0 | 0.00 | 0.00 | 0.00 | 99 | 1022.8 |
| 20260831111808 | 68 | 118 | 0.0 | 0.0 | 0.00 | 0.00 | 0.00 | 99 | 1022.7 |
| 20260831111259 | 68 | 120 | 0.0 | 0.0 | 0.00 | 0.00 | 0.00 | 99 | 1022.8 |
| 20260831110754 | 69 | 119 | 0.0 | 0.0 | 0.00 | 0.00 | 0.00 | 99 | 1022.6 |
| 20260831110249 | 69 | 119 | 0.0 | 0.0 | 0.00 | 0.00 | 0.00 | 99 | 1022.3 |
| 20260831105747 | 69 | 119 | 0.0 | 0.0 | 0.00 | 0.00 | 0.00 | 99 | 1022.3 |
| 20260831105243 | 69 | 119 | 0.0 | 0.0 | 0.00 | 0.00 | 0.00 | 99 | 1022.5 |
| 20260831104743 | 69 | 119 | 0.0 | 0.0 | 0.00 | 0.00 | 0.00 | 99 | 1022.3 |
| 20260831104240 | 69 | 119 | 0.0 | 0.0 | 0.00 | 0.00 | 0.00 | 99 | 1022.1 |
| 20260831103735 | 69 | 119 | 0.0 | 0.0 | 0.00 | 0.00 | 0.00 | 99 | 1022.4 |
| 20260831103230 | 69 | 119 | 0.0 | 0.0 | 0.00 | 0.00 | 0.00 | 99 | 1022.3 |
| 20260831102730 | 69 | 119 | 0.0 | 0.0 | 0.00 | 0.00 | 0.00 | 99 | 1022.3 |
| 20260831102225 | 69 | 119 | 0.0 | 0.0 | 0.00 | 0.00 | 0.00 | 99 | 1022.3 |
| 20260831101720 | 69 | 118 | 0.0 | 0.0 | 0.00 | 0.00 | 0.00 | 99 | 1022.0 |
| 20260831101216 | 69 | 119 | 0.0 | 0.0 | 0.00 | 0.00 | 0.00 | 99 | 1022.1 |
| 20260831100712 | 69 | 120 | 0.0 | 0.0 | 0.00 | 0.00 | 0.00 | 99 | 1022.0 |
| 20260831100208 | 69 | 127 | 0.0 | 0.0 | 0.00 | 0.00 | 0.00 | 99 | 1022.0 |
| 20260831095706 | 69 | 127 | 0.0 | 0.0 | 0.00 | 0.00 | 0.00 | 99 | 1021.6 |
| 20260831095201 | 69 | 127 | 0.0 | 0.0 | 0.00 | 0.00 | 0.00 | 99 | 1021.7 |
| 20260831094656 | 69 | 127 | 0.0 | 0.0 | 0.00 | 0.00 | 0.00 | 99 | 1021.8 |
| 20260831094152 | 69 | 127 | 0.0 | 0.0 | 0.00 | 0.00 | 0.00 | 99 | 1021.6 |
| 20260831093648 | 69 | 127 | 0.0 | 0.0 | 0.00 | 0.00 | 0.00 | 99 | 1021.6 |
| 20260831093143 | 69 | 127 | 0.0 | 0.0 | 0.00 | 0.00 | 0.00 | 99 | 1021.4 |
| 20260831092639 | 69 | 127 | 0.0 | 0.0 | 0.00 | 0.00 | 0.00 | 99 | 1021.7 |
| 20260831092135 | 69 | 127 | 0.0 | 0.0 | 0.00 | 0.00 | 0.00 | 99 | 1021.6 |
| 20260831091634 | 69 | 127 | 0.0 | 0.0 | 0.00 | 0.00 | 0.00 | 99 | 1021.8 |
| 20260831091130 | 69 | 127 | 0.0 | 0.0 | 0.00 | 0.00 | 0.00 | 99 | 1021.8 |
| 20260831090625 | 69 | 127 | 0.0 | 0.0 | 0.00 | 0.00 | 0.00 | 99 | 1021.6 |
| 20260831090121 | 69 | 127 | 0.0 | 0.0 | 0.00 | 0.00 | 0.00 | 99 | 1021.7 |
| 20260831085616 | 69 | 127 | 0.0 | 0.0 | 0.00 | 0.00 | 0.00 | 99 | 1021.6 |
| 20260831085112 | 69 | 127 | 0.0 | 0.0 | 0.00 | 0.00 | 0.00 | 99 | 1021.7 |
| 20260831084608 | 69 | 127 | 0.0 | 0.0 | 0.00 | 0.00 | 0.00 | 99 | 1021.4 |
| 20260831084103 | 69 | 127 | 0.0 | 0.0 | 0.00 | 0.00 | 0.00 | 99 | 1021.5 |
| 20260831083559 | 69 | 127 | 0.0 | 0.0 | 0.00 | 0.00 | 0.00 | 99 | 1021.4 |
| 20260831083054 | 69 | 128 | 0.0 | 0.0 | 0.00 | 0.00 | 0.00 | 99 | 1021.4 |
| 20260831082553 | 69 | 121 | 0.0 | 0.0 | 0.00 | 0.00 | 0.00 | 99 | 1021.5 |
| 20260831082048 | 69 | 124 | 0.0 | 0.0 | 0.00 | 0.00 | 0.00 | 99 | 1021.5 |
| 20260831081544 | 69 | 125 | 0.0 | 0.0 | 0.00 | 0.00 | 0.00 | 99 | 1021.3 |
| 20260831081035 | 68 | 125 | 0.0 | 0.0 | 0.00 | 0.00 | 0.00 | 99 | 1021.5 |
| 20260831080535 | 69 | 123 | 0.0 | 0.0 | 0.00 | 0.00 | 0.00 | 99 | 1021.5 |
| 20260831080030 | 69 | 123 | 0.0 | 0.0 | 0.00 | 0.00 | 0.00 | 99 | 1021.3 |
| 20260831075525 | 69 | 123 | 0.0 | 0.0 | 0.00 | 0.00 | 0.00 | 99 | 1021.4 |
| 20260831075021 | 69 | 123 | 0.0 | 0.0 | 0.00 | 0.00 | 0.00 | 99 | 1021.4 |
| 20260831074520 | 69 | 123 | 0.0 | 0.0 | 0.00 | 0.00 | 0.00 | 99 | 1021.4 |
| 20260831074020 | 69 | 123 | 0.0 | 0.0 | 0.00 | 0.00 | 0.00 | 99 | 1021.5 |
| 20260831073515 | 69 | 123 | 0.0 | 0.0 | 0.00 | 0.00 | 0.00 | 99 | 1021.4 |
| 20260831073014 | 69 | 123 | 0.0 | 0.0 | 0.00 | 0.00 | 0.00 | 99 | 1021.4 |
| 20260831072510 | 70 | 123 | 0.0 | 0.0 | 0.00 | 0.00 | 0.00 | 99 | 1021.4 |
| 20260831072006 | 70 | 123 | 0.0 | 0.0 | 0.00 | 0.00 | 0.00 | 99 | 1021.4 |
| 20260831071505 | 70 | 123 | 0.0 | 0.0 | 0.00 | 0.00 | 0.00 | 99 | 1021.5 |
| 20260831071000 | 70 | 123 | 0.0 | 0.0 | 0.00 | 0.00 | 0.00 | 99 | 1021.4 |
| 20260831070458 | 70 | 123 | 0.0 | 0.0 | 0.00 | 0.00 | 0.00 | 99 | 1021.7 |
| 20260831065958 | 70 | 123 | 0.0 | 0.0 | 0.00 | 0.00 | 0.00 | 99 | 1021.6 |
| 20260831065457 | 70 | 123 | 0.0 | 0.0 | 0.00 | 0.00 | 0.00 | 99 | 1021.6 |
| 20260831064952 | 70 | 123 | 0.0 | 0.0 | 0.00 | 0.00 | 0.00 | 99 | 1021.7 |
| 20260831064447 | 70 | 123 | 0.0 | 0.0 | 0.00 | 0.00 | 0.00 | 99 | 1021.8 |
| 20260831063942 | 70 | 123 | 0.0 | 0.0 | 0.00 | 0.00 | 0.00 | 99 | 1021.8 |
| 20260831063437 | 70 | 123 | 0.0 | 0.0 | 0.00 | 0.00 | 0.00 | 99 | 1021.7 |
| 20260831062931 | 70 | 123 | 0.0 | 0.0 | 0.00 | 0.00 | 0.00 | 99 | 1021.9 |
| 20260831062429 | 70 | 123 | 0.0 | 0.0 | 0.00 | 0.00 | 0.00 | 99 | 1022.0 |
| 20260831061926 | 70 | 123 | 0.0 | 0.0 | 0.00 | 0.00 | 0.00 | 99 | 1021.8 |
| 20260831061425 | 70 | 123 | 0.0 | 0.0 | 0.00 | 0.00 | 0.00 | 99 | 1021.9 |
| 20260831060921 | 70 | 123 | 0.0 | 0.0 | 0.00 | 0.00 | 0.00 | 99 | 1021.9 |
| 20260831060416 | 70 | 124 | 0.0 | 0.0 | 0.00 | 0.00 | 0.00 | 99 | 1021.8 |
| 20260831055915 | 70 | 123 | 0.0 | 0.0 | 0.00 | 0.00 | 0.00 | 99 | 1021.9 |
| 20260831055410 | 70 | 123 | 0.0 | 0.0 | 0.00 | 0.00 | 0.00 | 99 | 1021.9 |
| 20260831054906 | 70 | 123 | 0.0 | 0.0 | 0.00 | 0.00 | 0.00 | 99 | 1022.0 |
| 20260831054401 | 70 | 122 | 0.0 | 0.0 | 0.00 | 0.00 | 0.00 | 99 | 1022.0 |
| 20260831053859 | 70 | 122 | 0.0 | 0.0 | 0.00 | 0.00 | 0.00 | 99 | 1022.0 |
| 20260831053357 | 70 | 122 | 0.0 | 0.0 | 0.00 | 0.00 | 0.00 | 99 | 1021.9 |
| 20260831052852 | 71 | 122 | 0.0 | 0.0 | 0.00 | 0.00 | 0.00 | 99 | 1021.9 |
| 20260831052346 | 71 | 122 | 0.0 | 0.0 | 0.00 | 0.00 | 0.00 | 99 | 1021.9 |
| 20260831051845 | 71 | 122 | 0.0 | 0.0 | 0.00 | 0.00 | 0.00 | 99 | 1021.8 |
| 20260831051343 | 71 | 122 | 0.0 | 0.0 | 0.00 | 0.00 | 0.00 | 99 | 1021.8 |
| 20260831050838 | 71 | 123 | 0.0 | 0.0 | 0.00 | 0.00 | 0.00 | 99 | 1021.9 |
| 20260831050337 | 71 | 123 | 0.0 | 0.0 | 0.00 | 0.00 | 0.00 | 99 | 1021.8 |
| 20260831045832 | 71 | 123 | 0.0 | 0.0 | 0.00 | 0.00 | 0.00 | 99 | 1022.0 |
| 20260831045326 | 71 | 123 | 0.0 | 0.0 | 0.00 | 0.00 | 0.00 | 99 | 1021.8 |
| 20260831044821 | 71 | 123 | 0.0 | 0.0 | 0.00 | 0.00 | 0.00 | 99 | 1021.8 |
| 20260831044316 | 71 | 123 | 0.0 | 0.0 | 0.00 | 0.00 | 0.00 | 99 | 1021.9 |
| 20260831043812 | 71 | 123 | 0.0 | 0.0 | 0.00 | 0.00 | 0.00 | 99 | 1022.0 |
| 20260831043311 | 71 | 120 | 0.0 | 0.0 | 0.00 | 0.00 | 0.00 | 99 | 1021.9 |
| 20260831042806 | 72 | 120 | 0.0 | 0.0 | 0.00 | 0.00 | 0.00 | 99 | 1021.9 |
| 20260831042300 | 72 | 120 | 0.0 | 0.0 | 0.00 | 0.00 | 0.00 | 99 | 1022.1 |
| 20260831041756 | 72 | 120 | 0.0 | 0.0 | 0.00 | 0.00 | 0.00 | 99 | 1022.1 |
| 20260831041255 | 72 | 120 | 0.0 | 0.0 | 0.00 | 0.00 | 0.00 | 99 | 1022.1 |
| 20260831040750 | 72 | 120 | 0.0 | 0.0 | 0.00 | 0.00 | 0.00 | 98 | 1021.8 |
| 20260831040249 | 72 | 120 | 0.0 | 0.0 | 0.00 | 0.00 | 0.00 | 98 | 1021.8 |
| 20260831035748 | 72 | 120 | 0.0 | 0.0 | 0.00 | 0.00 | 0.00 | 98 | 1021.9 |